Year,Month,Day,Hour,Minute,Value (Times are PST for temperature in C)
2005,06,09,00,00,10.60
2005,06,09,00,01,10.60
2005,06,09,00,02,10.70
2005,06,09,00,03,10.70
2005,06,09,00,04,10.80
2005,06,09,00,05,10.90
2005,06,09,00,06,10.90
2005,06,09,00,07,10.90
2005,06,09,00,08,10.90
2005,06,09,00,09,10.90
2005,06,09,00,10,10.90
2005,06,09,00,11,10.90
2005,06,09,00,12,10.90
2005,06,09,00,13,10.90
2005,06,09,00,14,10.90
2005,06,09,00,15,10.90
2005,06,09,00,16,10.90
2005,06,09,00,17,10.90
2005,06,09,00,18,10.90
2005,06,09,00,19,10.90
2005,06,09,00,20,10.90
2005,06,09,00,21,10.90
2005,06,09,00,22,10.90
2005,06,09,00,23,10.80
2005,06,09,00,24,10.80
2005,06,09,00,25,10.70
2005,06,09,00,26,10.70
2005,06,09,00,27,10.60
2005,06,09,00,28,10.60
2005,06,09,00,29,10.60
2005,06,09,00,30,10.40
2005,06,09,00,31,10.40
2005,06,09,00,32,10.40
2005,06,09,00,33,10.40
2005,06,09,00,34,10.40
2005,06,09,00,35,10.50
2005,06,09,00,36,10.60
2005,06,09,00,37,10.60
2005,06,09,00,38,10.60
2005,06,09,00,39,10.60
2005,06,09,00,40,10.60
2005,06,09,00,41,10.50
2005,06,09,00,42,10.40
2005,06,09,00,43,10.50
2005,06,09,00,44,10.40
2005,06,09,00,45,10.40
2005,06,09,00,46,10.40
2005,06,09,00,47,10.40
2005,06,09,00,48,10.40
2005,06,09,00,49,10.40
2005,06,09,00,50,10.40
2005,06,09,00,51,10.40
2005,06,09,00,52,10.50
2005,06,09,00,53,10.60
2005,06,09,00,54,10.60
2005,06,09,00,55,10.60
2005,06,09,00,56,10.60
2005,06,09,00,57,10.50
2005,06,09,00,58,10.40
2005,06,09,00,59,10.40
2005,06,09,01,00,10.30
2005,06,09,01,01,10.30
2005,06,09,01,02,10.30
2005,06,09,01,03,10.20
2005,06,09,01,04,10.20
2005,06,09,01,05,10.20
2005,06,09,01,06,10.10
2005,06,09,01,07,10.10
2005,06,09,01,08,10.10
2005,06,09,01,09,10.10
2005,06,09,01,10,10.10
2005,06,09,01,11,10.10
2005,06,09,01,12,10.10
2005,06,09,01,13,10.10
2005,06,09,01,14,10.20
2005,06,09,01,15,10.20
2005,06,09,01,16,10.30
2005,06,09,01,17,10.30
2005,06,09,01,18,10.30
2005,06,09,01,19,10.30
2005,06,09,01,20,10.30
2005,06,09,01,21,10.20
2005,06,09,01,22,10.20
2005,06,09,01,23,10.20
2005,06,09,01,24,10.10
2005,06,09,01,25,10.10
2005,06,09,01,26,10.10
2005,06,09,01,27,10.10
2005,06,09,01,28,10.00
2005,06,09,01,29,10.00
2005,06,09,01,30,9.90
2005,06,09,01,31,9.90
2005,06,09,01,32,9.90
2005,06,09,01,33,10.00
2005,06,09,01,34,10.10
2005,06,09,01,35,10.10
2005,06,09,01,36,10.10
2005,06,09,01,37,10.10
2005,06,09,01,38,10.10
2005,06,09,01,39,10.10
2005,06,09,01,40,10.10
2005,06,09,01,41,10.10
2005,06,09,01,42,10.10
2005,06,09,01,43,10.10
2005,06,09,01,44,9.90
2005,06,09,01,45,9.90
2005,06,09,01,46,9.90
2005,06,09,01,47,9.90
2005,06,09,01,48,9.90
2005,06,09,01,49,9.80
2005,06,09,01,50,9.90
2005,06,09,01,51,9.90
2005,06,09,01,52,9.90
2005,06,09,01,53,9.80
2005,06,09,01,54,9.80
2005,06,09,01,55,9.80
2005,06,09,01,56,9.80
2005,06,09,01,57,9.70
2005,06,09,01,58,9.70
2005,06,09,01,59,9.70
2005,06,09,02,00,9.80
2005,06,09,02,01,9.80
2005,06,09,02,02,9.80
2005,06,09,02,03,9.80
2005,06,09,02,04,9.80
2005,06,09,02,05,9.90
2005,06,09,02,06,9.90
2005,06,09,02,07,9.90
2005,06,09,02,08,10.00
2005,06,09,02,09,10.10
2005,06,09,02,10,10.00
2005,06,09,02,11,9.90
2005,06,09,02,12,9.90
2005,06,09,02,13,9.90
2005,06,09,02,14,9.90
2005,06,09,02,15,9.90
2005,06,09,02,16,9.90
2005,06,09,02,17,9.90
2005,06,09,02,18,9.90
2005,06,09,02,19,9.90
2005,06,09,02,20,9.80
2005,06,09,02,21,9.80
2005,06,09,02,22,9.80
2005,06,09,02,23,9.80
2005,06,09,02,24,9.80
2005,06,09,02,25,9.90
2005,06,09,02,26,9.90
2005,06,09,02,27,9.90
2005,06,09,02,28,10.00
2005,06,09,02,29,10.10
2005,06,09,02,30,10.10
2005,06,09,02,31,10.10
2005,06,09,02,32,10.00
2005,06,09,02,33,9.90
2005,06,09,02,34,9.90
2005,06,09,02,35,9.90
2005,06,09,02,36,9.90
2005,06,09,02,37,9.90
2005,06,09,02,38,9.90
2005,06,09,02,39,9.80
2005,06,09,02,40,9.80
2005,06,09,02,41,9.90
2005,06,09,02,42,9.90
2005,06,09,02,43,9.80
2005,06,09,02,44,9.80
2005,06,09,02,45,9.70
2005,06,09,02,46,9.70
2005,06,09,02,47,9.60
2005,06,09,02,48,9.60
2005,06,09,02,49,9.50
2005,06,09,02,50,9.50
2005,06,09,02,51,9.50
2005,06,09,02,52,9.40
2005,06,09,02,53,9.40
2005,06,09,02,54,9.40
2005,06,09,02,55,9.50
2005,06,09,02,56,9.50
2005,06,09,02,57,9.40
2005,06,09,02,58,9.30
2005,06,09,02,59,9.20
2005,06,09,03,00,9.20
2005,06,09,03,01,9.20
2005,06,09,03,02,9.20
2005,06,09,03,03,9.20
2005,06,09,03,04,9.20
2005,06,09,03,05,9.20
2005,06,09,03,06,9.30
2005,06,09,03,07,9.20
2005,06,09,03,08,9.20
2005,06,09,03,09,9.20
2005,06,09,03,10,9.20
2005,06,09,03,11,9.20
2005,06,09,03,12,9.20
2005,06,09,03,13,9.20
2005,06,09,03,14,9.20
2005,06,09,03,15,9.20
2005,06,09,03,16,9.20
2005,06,09,03,17,9.20
2005,06,09,03,18,9.20
2005,06,09,03,19,9.20
2005,06,09,03,20,9.20
2005,06,09,03,21,9.10
2005,06,09,03,22,9.10
2005,06,09,03,23,9.10
2005,06,09,03,24,9.10
2005,06,09,03,25,9.10
2005,06,09,03,26,9.10
2005,06,09,03,27,9.10
2005,06,09,03,28,9.10
2005,06,09,03,29,9.10
2005,06,09,03,30,9.10
2005,06,09,03,31,9.10
2005,06,09,03,32,9.00
2005,06,09,03,33,9.00
2005,06,09,03,34,9.10
2005,06,09,03,35,9.00
2005,06,09,03,36,8.90
2005,06,09,03,37,8.90
2005,06,09,03,38,9.00
2005,06,09,03,39,8.90
2005,06,09,03,40,8.90
2005,06,09,03,41,8.90
2005,06,09,03,42,9.00
2005,06,09,03,43,9.00
2005,06,09,03,44,9.00
2005,06,09,03,45,9.00
2005,06,09,03,46,9.00
2005,06,09,03,47,9.10
2005,06,09,03,48,9.10
2005,06,09,03,49,9.10
2005,06,09,03,50,9.10
2005,06,09,03,51,9.10
2005,06,09,03,52,9.10
2005,06,09,03,53,9.00
2005,06,09,03,54,9.00
2005,06,09,03,55,8.90
2005,06,09,03,56,8.90
2005,06,09,03,57,8.90
2005,06,09,03,58,8.80
2005,06,09,03,59,8.80
2005,06,09,04,00,8.80
2005,06,09,04,01,8.80
2005,06,09,04,02,8.80
2005,06,09,04,03,8.70
2005,06,09,04,04,8.70
2005,06,09,04,05,8.70
2005,06,09,04,06,8.70
2005,06,09,04,07,8.70
2005,06,09,04,08,8.70
2005,06,09,04,09,8.70
2005,06,09,04,10,8.70
2005,06,09,04,11,8.70
2005,06,09,04,12,8.80
2005,06,09,04,13,8.80
2005,06,09,04,14,8.90
2005,06,09,04,15,8.90
2005,06,09,04,16,8.90
2005,06,09,04,17,8.90
2005,06,09,04,18,9.00
2005,06,09,04,19,9.00
2005,06,09,04,20,9.00
2005,06,09,04,21,9.00
2005,06,09,04,22,9.00
2005,06,09,04,23,9.00
2005,06,09,04,24,9.10
2005,06,09,04,25,9.10
2005,06,09,04,26,9.10
2005,06,09,04,27,9.20
2005,06,09,04,28,9.30
2005,06,09,04,29,9.30
2005,06,09,04,30,9.30
2005,06,09,04,31,9.30
2005,06,09,04,32,9.30
2005,06,09,04,33,9.30
2005,06,09,04,34,9.30
2005,06,09,04,35,9.20
2005,06,09,04,36,9.20
2005,06,09,04,37,9.20
2005,06,09,04,38,9.20
2005,06,09,04,39,9.20
2005,06,09,04,40,9.20
2005,06,09,04,41,9.20
2005,06,09,04,42,9.20
2005,06,09,04,43,9.20
2005,06,09,04,44,9.20
2005,06,09,04,45,9.20
2005,06,09,04,46,9.20
2005,06,09,04,47,9.20
2005,06,09,04,48,9.10
2005,06,09,04,49,9.00
2005,06,09,04,50,9.00
2005,06,09,04,51,9.00
2005,06,09,04,52,9.00
2005,06,09,04,53,9.00
2005,06,09,04,54,9.00
2005,06,09,04,55,9.00
2005,06,09,04,56,9.10
2005,06,09,04,57,9.10
2005,06,09,04,58,9.10
2005,06,09,04,59,9.10
2005,06,09,05,00,9.20
2005,06,09,05,01,9.20
2005,06,09,05,02,9.20
2005,06,09,05,03,9.20
2005,06,09,05,04,9.20
2005,06,09,05,05,9.30
2005,06,09,05,06,9.30
2005,06,09,05,07,9.30
2005,06,09,05,08,9.30
2005,06,09,05,09,9.30
2005,06,09,05,10,9.30
2005,06,09,05,11,9.20
2005,06,09,05,12,9.20
2005,06,09,05,13,9.20
2005,06,09,05,14,9.20
2005,06,09,05,15,9.20
2005,06,09,05,16,9.20
2005,06,09,05,17,9.30
2005,06,09,05,18,9.30
2005,06,09,05,19,9.40
2005,06,09,05,20,9.40
2005,06,09,05,21,9.30
2005,06,09,05,22,9.30
2005,06,09,05,23,9.30
2005,06,09,05,24,9.30
2005,06,09,05,25,9.20
2005,06,09,05,26,9.20
2005,06,09,05,27,9.20
2005,06,09,05,28,9.20
2005,06,09,05,29,9.20
2005,06,09,05,30,9.20
2005,06,09,05,31,9.20
2005,06,09,05,32,9.20
2005,06,09,05,33,9.20
2005,06,09,05,34,9.20
2005,06,09,05,35,9.30
2005,06,09,05,36,9.30
2005,06,09,05,37,9.30
2005,06,09,05,38,9.30
2005,06,09,05,39,9.30
2005,06,09,05,40,9.50
2005,06,09,05,41,9.50
2005,06,09,05,42,9.60
2005,06,09,05,43,9.60
2005,06,09,05,44,9.60
2005,06,09,05,45,9.70
2005,06,09,05,46,9.70
2005,06,09,05,47,9.70
2005,06,09,05,48,9.70
2005,06,09,05,49,9.80
2005,06,09,05,50,9.80
2005,06,09,05,51,9.80
2005,06,09,05,52,9.80
2005,06,09,05,53,9.80
2005,06,09,05,54,9.90
2005,06,09,05,55,9.90
2005,06,09,05,56,9.90
2005,06,09,05,57,9.80
2005,06,09,05,58,9.80
2005,06,09,05,59,9.90
2005,06,09,06,00,9.90
2005,06,09,06,01,9.80
2005,06,09,06,02,9.80
2005,06,09,06,03,9.80
2005,06,09,06,04,9.90
2005,06,09,06,05,9.90
2005,06,09,06,06,9.90
2005,06,09,06,07,10.00
2005,06,09,06,08,10.10
2005,06,09,06,09,10.10
2005,06,09,06,10,10.10
2005,06,09,06,11,10.10
2005,06,09,06,12,10.20
2005,06,09,06,13,10.30
2005,06,09,06,14,10.30
2005,06,09,06,15,10.30
2005,06,09,06,16,10.40
2005,06,09,06,17,10.40
2005,06,09,06,18,10.40
2005,06,09,06,19,10.40
2005,06,09,06,20,10.50
2005,06,09,06,21,10.60
2005,06,09,06,22,10.60
2005,06,09,06,23,10.70
2005,06,09,06,24,10.70
2005,06,09,06,25,10.80
2005,06,09,06,26,10.80
2005,06,09,06,27,10.80
2005,06,09,06,28,10.80
2005,06,09,06,29,10.80
2005,06,09,06,30,10.90
2005,06,09,06,31,10.90
2005,06,09,06,32,10.90
2005,06,09,06,33,11.00
2005,06,09,06,34,11.10
2005,06,09,06,35,11.10
2005,06,09,06,36,11.10
2005,06,09,06,37,11.10
2005,06,09,06,38,11.20
2005,06,09,06,39,11.30
2005,06,09,06,40,11.30
2005,06,09,06,41,11.30
2005,06,09,06,42,11.30
2005,06,09,06,43,11.40
2005,06,09,06,44,11.30
2005,06,09,06,45,11.30
2005,06,09,06,46,11.30
2005,06,09,06,47,11.40
2005,06,09,06,48,11.40
2005,06,09,06,49,11.40
2005,06,09,06,50,11.40
2005,06,09,06,51,11.40
2005,06,09,06,52,11.30
2005,06,09,06,53,11.30
2005,06,09,06,54,11.20
2005,06,09,06,55,11.20
2005,06,09,06,56,11.20
2005,06,09,06,57,11.30
2005,06,09,06,58,11.30
2005,06,09,06,59,11.30
2005,06,09,07,00,11.40
2005,06,09,07,01,11.40
2005,06,09,07,02,11.40
2005,06,09,07,03,11.50
2005,06,09,07,04,11.60
2005,06,09,07,05,11.60
2005,06,09,07,06,11.60
2005,06,09,07,07,11.70
2005,06,09,07,08,11.70
2005,06,09,07,09,11.80
2005,06,09,07,10,11.80
2005,06,09,07,11,11.80
2005,06,09,07,12,11.80
2005,06,09,07,13,11.80
2005,06,09,07,14,11.80
2005,06,09,07,15,11.70
2005,06,09,07,16,11.70
2005,06,09,07,17,11.60
2005,06,09,07,18,11.60
2005,06,09,07,19,11.60
2005,06,09,07,20,11.60
2005,06,09,07,21,11.60
2005,06,09,07,22,11.60
2005,06,09,07,23,11.70
2005,06,09,07,24,11.70
2005,06,09,07,25,11.80
2005,06,09,07,26,11.80
2005,06,09,07,27,11.80
2005,06,09,07,28,11.80
2005,06,09,07,29,11.80
2005,06,09,07,30,11.80
2005,06,09,07,31,11.80
2005,06,09,07,32,11.80
2005,06,09,07,33,11.80
2005,06,09,07,34,11.80
2005,06,09,07,35,11.80
2005,06,09,07,36,11.80
2005,06,09,07,37,11.80
2005,06,09,07,38,11.80
2005,06,09,07,39,11.80
2005,06,09,07,40,11.80
2005,06,09,07,41,11.80
2005,06,09,07,42,11.80
2005,06,09,07,43,11.80
2005,06,09,07,44,11.80
2005,06,09,07,45,11.80
2005,06,09,07,46,11.90
2005,06,09,07,47,11.90
2005,06,09,07,48,11.90
2005,06,09,07,49,12.00
2005,06,09,07,50,12.00
2005,06,09,07,51,12.00
2005,06,09,07,52,12.00
2005,06,09,07,53,12.00
2005,06,09,07,54,12.00
2005,06,09,07,55,12.00
2005,06,09,07,56,12.10
2005,06,09,07,57,12.10
2005,06,09,07,58,12.10
2005,06,09,07,59,12.10
2005,06,09,08,00,12.10
2005,06,09,08,01,12.20
2005,06,09,08,02,12.20
2005,06,09,08,03,12.20
2005,06,09,08,04,12.20
2005,06,09,08,05,12.30
2005,06,09,08,06,12.20
2005,06,09,08,07,12.30
2005,06,09,08,08,12.30
2005,06,09,08,09,12.30
2005,06,09,08,10,12.30
2005,06,09,08,11,12.40
2005,06,09,08,12,12.40
2005,06,09,08,13,12.40
2005,06,09,08,14,12.50
2005,06,09,08,15,12.50
2005,06,09,08,16,12.40
2005,06,09,08,17,12.40
2005,06,09,08,18,12.50
2005,06,09,08,19,12.50
2005,06,09,08,20,12.60
2005,06,09,08,21,12.60
2005,06,09,08,22,12.60
2005,06,09,08,23,12.70
2005,06,09,08,24,12.70
2005,06,09,08,25,12.80
2005,06,09,08,26,12.80
2005,06,09,08,27,13.00
2005,06,09,08,28,13.00
2005,06,09,08,29,13.10
2005,06,09,08,30,13.30
2005,06,09,08,31,13.40
2005,06,09,08,32,13.50
2005,06,09,08,33,13.60
2005,06,09,08,34,13.70
2005,06,09,08,35,13.70
2005,06,09,08,36,13.80
2005,06,09,08,37,13.90
2005,06,09,08,38,14.00
2005,06,09,08,39,14.10
2005,06,09,08,40,14.20
2005,06,09,08,41,14.20
2005,06,09,08,42,14.20
2005,06,09,08,43,14.20
2005,06,09,08,44,14.20
2005,06,09,08,45,14.20
2005,06,09,08,46,14.20
2005,06,09,08,47,14.20
2005,06,09,08,48,14.20
2005,06,09,08,49,14.10
2005,06,09,08,50,14.00
2005,06,09,08,51,14.00
2005,06,09,08,52,14.00
2005,06,09,08,53,14.00
2005,06,09,08,54,14.10
2005,06,09,08,55,14.10
2005,06,09,08,56,14.20
2005,06,09,08,57,14.20
2005,06,09,08,58,14.20
2005,06,09,08,59,14.20
2005,06,09,09,00,14.20
2005,06,09,09,01,14.30
2005,06,09,09,02,14.40
2005,06,09,09,03,14.40
2005,06,09,09,04,14.40
2005,06,09,09,05,14.30
2005,06,09,09,06,14.20
2005,06,09,09,07,14.20
2005,06,09,09,08,14.20
2005,06,09,09,09,14.10
2005,06,09,09,10,14.10
2005,06,09,09,11,14.10
2005,06,09,09,12,14.10
2005,06,09,09,13,14.10
2005,06,09,09,14,14.20
2005,06,09,09,15,14.20
2005,06,09,09,16,14.20
2005,06,09,09,17,14.20
2005,06,09,09,18,14.20
2005,06,09,09,19,14.20
2005,06,09,09,20,14.20
2005,06,09,09,21,14.20
2005,06,09,09,22,14.20
2005,06,09,09,23,14.40
2005,06,09,09,24,14.40
2005,06,09,09,25,14.40
2005,06,09,09,26,14.50
2005,06,09,09,27,14.50
2005,06,09,09,28,14.50
2005,06,09,09,29,14.50
2005,06,09,09,30,14.40
2005,06,09,09,31,14.40
2005,06,09,09,32,14.40
2005,06,09,09,33,14.40
2005,06,09,09,34,14.40
2005,06,09,09,35,14.40
2005,06,09,09,36,14.50
2005,06,09,09,37,14.60
2005,06,09,09,38,14.60
2005,06,09,09,39,14.60
2005,06,09,09,40,14.60
2005,06,09,09,41,14.70
2005,06,09,09,42,14.70
2005,06,09,09,43,14.70
2005,06,09,09,44,14.80
2005,06,09,09,45,14.80
2005,06,09,09,46,14.80
2005,06,09,09,47,14.80
2005,06,09,09,48,14.80
2005,06,09,09,49,14.90
2005,06,09,09,50,14.90
2005,06,09,09,51,14.90
2005,06,09,09,52,15.00
2005,06,09,09,53,15.00
2005,06,09,09,54,15.00
2005,06,09,09,55,15.10
2005,06,09,09,56,15.10
2005,06,09,09,57,15.10
2005,06,09,09,58,15.30
2005,06,09,09,59,15.30
2005,06,09,10,00,15.30
2005,06,09,10,01,15.30
2005,06,09,10,02,15.30
2005,06,09,10,03,15.20
2005,06,09,10,04,15.10
2005,06,09,10,05,15.20
2005,06,09,10,06,15.20
2005,06,09,10,07,15.10
2005,06,09,10,08,15.00
2005,06,09,10,09,15.00
2005,06,09,10,10,14.90
2005,06,09,10,11,14.80
2005,06,09,10,12,14.70
2005,06,09,10,13,14.50
2005,06,09,10,14,14.50
2005,06,09,10,15,14.50
2005,06,09,10,16,14.50
2005,06,09,10,17,14.50
2005,06,09,10,18,14.50
2005,06,09,10,19,14.60
2005,06,09,10,20,14.50
2005,06,09,10,21,14.50
2005,06,09,10,22,14.50
2005,06,09,10,23,14.40
2005,06,09,10,24,14.40
2005,06,09,10,25,14.30
2005,06,09,10,26,14.30
2005,06,09,10,27,14.30
2005,06,09,10,28,14.20
2005,06,09,10,29,14.20
2005,06,09,10,30,14.20
2005,06,09,10,31,14.10
2005,06,09,10,32,14.00
2005,06,09,10,33,13.90
2005,06,09,10,34,14.10
2005,06,09,10,35,14.00
2005,06,09,10,36,14.00
2005,06,09,10,37,14.00
2005,06,09,10,38,14.10
2005,06,09,10,39,14.10
2005,06,09,10,40,14.20
2005,06,09,10,41,14.20
2005,06,09,10,42,14.20
2005,06,09,10,43,14.10
2005,06,09,10,44,14.10
2005,06,09,10,45,14.10
2005,06,09,10,46,14.20
2005,06,09,10,47,14.30
2005,06,09,10,48,14.40
2005,06,09,10,49,14.40
2005,06,09,10,50,14.30
2005,06,09,10,51,14.20
2005,06,09,10,52,14.10
2005,06,09,10,53,14.10
2005,06,09,10,54,14.10
2005,06,09,10,55,14.00
2005,06,09,10,56,14.00
2005,06,09,10,57,13.90
2005,06,09,10,58,13.90
2005,06,09,10,59,13.90
2005,06,09,11,00,13.80
2005,06,09,11,01,13.80
2005,06,09,11,02,13.90
2005,06,09,11,03,14.10
2005,06,09,11,04,14.20
2005,06,09,11,05,14.30
2005,06,09,11,06,14.40
2005,06,09,11,07,14.50
2005,06,09,11,08,14.60
2005,06,09,11,09,14.50
2005,06,09,11,10,14.50
2005,06,09,11,11,14.50
2005,06,09,11,12,14.50
2005,06,09,11,13,14.60
2005,06,09,11,14,14.50
2005,06,09,11,15,14.50
2005,06,09,11,16,14.50
2005,06,09,11,17,14.50
2005,06,09,11,18,14.50
2005,06,09,11,19,14.40
2005,06,09,11,20,14.40
2005,06,09,11,21,14.40
2005,06,09,11,22,14.40
2005,06,09,11,23,14.50
2005,06,09,11,24,14.60
2005,06,09,11,25,14.70
2005,06,09,11,26,14.70
2005,06,09,11,27,14.70
2005,06,09,11,28,14.80
2005,06,09,11,29,14.90
2005,06,09,11,30,15.00
2005,06,09,11,31,15.20
2005,06,09,11,32,15.30
2005,06,09,11,33,15.40
2005,06,09,11,34,15.40
2005,06,09,11,35,15.30
2005,06,09,11,36,15.20
2005,06,09,11,37,15.20
2005,06,09,11,38,15.30
2005,06,09,11,39,15.30
2005,06,09,11,40,15.50
2005,06,09,11,41,15.40
2005,06,09,11,42,15.30
2005,06,09,11,43,15.30
2005,06,09,11,44,15.30
2005,06,09,11,45,15.30
2005,06,09,11,46,15.40
2005,06,09,11,47,15.50
2005,06,09,11,48,15.70
2005,06,09,11,49,15.70
2005,06,09,11,50,15.60
2005,06,09,11,51,15.50
2005,06,09,11,52,15.50
2005,06,09,11,53,15.50
2005,06,09,11,54,15.60
2005,06,09,11,55,15.50
2005,06,09,11,56,15.50
2005,06,09,11,57,15.60
2005,06,09,11,58,15.70
2005,06,09,11,59,15.60
2005,06,09,12,00,15.70
2005,06,09,12,01,15.50
2005,06,09,12,02,15.40
2005,06,09,12,03,15.30
2005,06,09,12,04,15.30
2005,06,09,12,05,15.30
2005,06,09,12,06,15.20
2005,06,09,12,07,15.10
2005,06,09,12,08,15.10
2005,06,09,12,09,15.10
2005,06,09,12,10,15.10
2005,06,09,12,11,15.10
2005,06,09,12,12,15.10
2005,06,09,12,13,15.20
2005,06,09,12,14,15.20
2005,06,09,12,15,15.30
2005,06,09,12,16,15.30
2005,06,09,12,17,15.30
2005,06,09,12,18,15.30
2005,06,09,12,19,15.30
2005,06,09,12,20,15.30
2005,06,09,12,21,15.10
2005,06,09,12,22,15.10
2005,06,09,12,23,15.30
2005,06,09,12,24,15.30
2005,06,09,12,25,15.50
2005,06,09,12,26,15.60
2005,06,09,12,27,15.60
2005,06,09,12,28,15.70
2005,06,09,12,29,15.70
2005,06,09,12,30,15.70
2005,06,09,12,31,15.80
2005,06,09,12,32,15.80
2005,06,09,12,33,15.90
2005,06,09,12,34,15.80
2005,06,09,12,35,15.80
2005,06,09,12,36,15.80
2005,06,09,12,37,15.80
2005,06,09,12,38,15.90
2005,06,09,12,39,16.00
2005,06,09,12,40,16.00
2005,06,09,12,41,16.00
2005,06,09,12,42,16.00
2005,06,09,12,43,16.00
2005,06,09,12,44,15.80
2005,06,09,12,45,15.80
2005,06,09,12,46,15.90
2005,06,09,12,47,16.00
2005,06,09,12,48,15.80
2005,06,09,12,49,15.90
2005,06,09,12,50,15.90
2005,06,09,12,51,16.00
2005,06,09,12,52,16.00
2005,06,09,12,53,15.90
2005,06,09,12,54,16.10
2005,06,09,12,55,16.30
2005,06,09,12,56,16.40
2005,06,09,12,57,16.40
2005,06,09,12,58,16.40
2005,06,09,12,59,16.40
2005,06,09,13,00,16.30
2005,06,09,13,01,16.30
2005,06,09,13,02,16.30
2005,06,09,13,03,16.20
2005,06,09,13,04,16.20
2005,06,09,13,05,16.20
2005,06,09,13,06,16.20
2005,06,09,13,07,16.20
2005,06,09,13,08,16.20
2005,06,09,13,09,16.20
2005,06,09,13,10,16.10
2005,06,09,13,11,16.10
2005,06,09,13,12,16.10
2005,06,09,13,13,16.10
2005,06,09,13,14,16.10
2005,06,09,13,15,16.10
2005,06,09,13,16,16.00
2005,06,09,13,17,16.00
2005,06,09,13,18,15.90
2005,06,09,13,19,16.10
2005,06,09,13,20,16.20
2005,06,09,13,21,16.40
2005,06,09,13,22,16.70
2005,06,09,13,23,16.70
2005,06,09,13,24,16.90
2005,06,09,13,25,17.10
2005,06,09,13,26,17.20
2005,06,09,13,27,17.10
2005,06,09,13,28,17.20
2005,06,09,13,29,17.10
2005,06,09,13,30,17.00
2005,06,09,13,31,17.10
2005,06,09,13,32,17.00
2005,06,09,13,33,16.90
2005,06,09,13,34,16.90
2005,06,09,13,35,16.80
2005,06,09,13,36,16.80
2005,06,09,13,37,16.80
2005,06,09,13,38,16.80
2005,06,09,13,39,16.60
2005,06,09,13,40,16.50
2005,06,09,13,41,16.50
2005,06,09,13,42,16.50
2005,06,09,13,43,16.50
2005,06,09,13,44,16.60
2005,06,09,13,45,16.70
2005,06,09,13,46,16.80
2005,06,09,13,47,16.70
2005,06,09,13,48,16.80
2005,06,09,13,49,16.70
2005,06,09,13,50,16.70
2005,06,09,13,51,16.60
2005,06,09,13,52,16.70
2005,06,09,13,53,16.70
2005,06,09,13,54,16.80
2005,06,09,13,55,16.90
2005,06,09,13,56,17.00
2005,06,09,13,57,16.90
2005,06,09,13,58,16.80
2005,06,09,13,59,16.70
2005,06,09,14,00,16.60
2005,06,09,14,01,16.60
2005,06,09,14,02,16.70
2005,06,09,14,03,16.60
2005,06,09,14,04,16.30
2005,06,09,14,05,16.30
2005,06,09,14,06,16.20
2005,06,09,14,07,16.10
2005,06,09,14,08,16.30
2005,06,09,14,09,16.40
2005,06,09,14,10,16.60
2005,06,09,14,11,16.90
2005,06,09,14,12,17.00
2005,06,09,14,13,16.90
2005,06,09,14,14,16.80
2005,06,09,14,15,16.90
2005,06,09,14,16,17.00
2005,06,09,14,17,17.10
2005,06,09,14,18,17.20
2005,06,09,14,19,17.30
2005,06,09,14,20,17.40
2005,06,09,14,21,17.30
2005,06,09,14,22,17.30
2005,06,09,14,23,17.30
2005,06,09,14,24,17.10
2005,06,09,14,25,17.10
2005,06,09,14,26,17.20
2005,06,09,14,27,17.40
2005,06,09,14,28,17.50
2005,06,09,14,29,17.50
2005,06,09,14,30,17.50
2005,06,09,14,31,17.20
2005,06,09,14,32,16.80
2005,06,09,14,33,16.70
2005,06,09,14,34,16.80
2005,06,09,14,35,16.90
2005,06,09,14,36,16.70
2005,06,09,14,37,16.60
2005,06,09,14,38,16.60
2005,06,09,14,39,16.60
2005,06,09,14,40,16.60
2005,06,09,14,41,16.60
2005,06,09,14,42,16.70
2005,06,09,14,43,16.80
2005,06,09,14,44,17.10
2005,06,09,14,45,17.20
2005,06,09,14,46,17.30
2005,06,09,14,47,17.40
2005,06,09,14,48,17.50
2005,06,09,14,49,17.50
2005,06,09,14,50,17.30
2005,06,09,14,51,17.30
2005,06,09,14,52,17.40
2005,06,09,14,53,17.60
2005,06,09,14,54,17.80
2005,06,09,14,55,17.70
2005,06,09,14,56,17.70
2005,06,09,14,57,17.60
2005,06,09,14,58,17.40
2005,06,09,14,59,17.20
2005,06,09,15,00,17.20
2005,06,09,15,01,17.30
2005,06,09,15,02,17.40
2005,06,09,15,03,17.50
2005,06,09,15,04,17.70
2005,06,09,15,05,17.50
2005,06,09,15,06,17.50
2005,06,09,15,07,17.50
2005,06,09,15,08,17.30
2005,06,09,15,09,17.50
2005,06,09,15,10,17.40
2005,06,09,15,11,17.50
2005,06,09,15,12,17.50
2005,06,09,15,13,17.50
2005,06,09,15,14,17.50
2005,06,09,15,15,17.60
2005,06,09,15,16,17.50
2005,06,09,15,17,17.50
2005,06,09,15,18,17.70
2005,06,09,15,19,17.70
2005,06,09,15,20,17.50
2005,06,09,15,21,17.40
2005,06,09,15,22,17.40
2005,06,09,15,23,17.30
2005,06,09,15,24,17.30
2005,06,09,15,25,17.30
2005,06,09,15,26,17.30
2005,06,09,15,27,17.30
2005,06,09,15,28,17.40
2005,06,09,15,29,17.60
2005,06,09,15,30,17.80
2005,06,09,15,31,17.70
2005,06,09,15,32,17.90
2005,06,09,15,33,18.00
2005,06,09,15,34,18.10
2005,06,09,15,35,18.10
2005,06,09,15,36,17.90
2005,06,09,15,37,17.80
2005,06,09,15,38,17.80
2005,06,09,15,39,17.90
2005,06,09,15,40,18.00
2005,06,09,15,41,18.20
2005,06,09,15,42,18.20
2005,06,09,15,43,18.40
2005,06,09,15,44,18.60
2005,06,09,15,45,18.90
2005,06,09,15,46,18.90
2005,06,09,15,47,18.70
2005,06,09,15,48,18.80
2005,06,09,15,49,18.90
2005,06,09,15,50,19.00
2005,06,09,15,51,18.60
2005,06,09,15,52,18.50
2005,06,09,15,53,18.50
2005,06,09,15,54,18.50
2005,06,09,15,55,18.40
2005,06,09,15,56,18.40
2005,06,09,15,57,18.60
2005,06,09,15,58,18.80
2005,06,09,15,59,19.10
2005,06,09,16,00,19.50
2005,06,09,16,01,19.70
2005,06,09,16,02,19.80
2005,06,09,16,03,19.60
2005,06,09,16,04,19.60
2005,06,09,16,05,19.70
2005,06,09,16,06,19.80
2005,06,09,16,07,19.80
2005,06,09,16,08,19.80
2005,06,09,16,09,19.80
2005,06,09,16,10,19.90
2005,06,09,16,11,19.80
2005,06,09,16,12,19.60
2005,06,09,16,13,19.50
2005,06,09,16,14,19.50
2005,06,09,16,15,19.40
2005,06,09,16,16,19.60
2005,06,09,16,17,19.60
2005,06,09,16,18,19.70
2005,06,09,16,19,19.80
2005,06,09,16,20,19.90
2005,06,09,16,21,19.90
2005,06,09,16,22,20.00
2005,06,09,16,23,19.90
2005,06,09,16,24,19.50
2005,06,09,16,25,19.40
2005,06,09,16,26,19.50
2005,06,09,16,27,19.60
2005,06,09,16,28,19.50
2005,06,09,16,29,19.40
2005,06,09,16,30,19.20
2005,06,09,16,31,19.00
2005,06,09,16,32,19.00
2005,06,09,16,33,18.90
2005,06,09,16,34,19.00
2005,06,09,16,35,19.10
2005,06,09,16,36,19.00
2005,06,09,16,37,19.00
2005,06,09,16,38,18.80
2005,06,09,16,39,18.90
2005,06,09,16,40,18.80
2005,06,09,16,41,18.60
2005,06,09,16,42,18.40
2005,06,09,16,43,18.20
2005,06,09,16,44,18.30
2005,06,09,16,45,18.40
2005,06,09,16,46,18.40
2005,06,09,16,47,18.20
2005,06,09,16,48,18.10
2005,06,09,16,49,18.00
2005,06,09,16,50,18.00
2005,06,09,16,51,18.00
2005,06,09,16,52,18.10
2005,06,09,16,53,18.30
2005,06,09,16,54,18.40
2005,06,09,16,55,18.60
2005,06,09,16,56,18.80
2005,06,09,16,57,18.70
2005,06,09,16,58,18.70
2005,06,09,16,59,18.70
2005,06,09,17,00,18.70
2005,06,09,17,01,18.80
2005,06,09,17,02,19.00
2005,06,09,17,03,19.10
2005,06,09,17,04,19.10
2005,06,09,17,05,19.10
2005,06,09,17,06,19.10
2005,06,09,17,07,19.10
2005,06,09,17,08,19.20
2005,06,09,17,09,19.30
2005,06,09,17,10,19.30
2005,06,09,17,11,19.30
2005,06,09,17,12,19.20
2005,06,09,17,13,19.10
2005,06,09,17,14,19.10
2005,06,09,17,15,19.20
2005,06,09,17,16,19.20
2005,06,09,17,17,19.20
2005,06,09,17,18,19.20
2005,06,09,17,19,19.30
2005,06,09,17,20,19.40
2005,06,09,17,21,19.50
2005,06,09,17,22,19.60
2005,06,09,17,23,19.70
2005,06,09,17,24,19.60
2005,06,09,17,25,19.70
2005,06,09,17,26,19.90
2005,06,09,17,27,19.80
2005,06,09,17,28,19.90
2005,06,09,17,29,19.80
2005,06,09,17,30,19.90